Regional Weather Roundup
Issued by NWS

Home | Current Version | Previous Version | Text Only | Print | Product List | Glossary Off
Versions: 1 2 3 4 5 6 7 8 9 10 11 12 13 14 15 16 17 18 19 20 21 22 23 24 25 26 27 28 29 30 31 32 33 34 35 36 37 38 39 40 41 42 43 44 45 46 47 48 49 50

000
ASUS43 KLMK 152002
RWRKY
KENTUCKY REGIONAL WEATHER ROUNDUP
NATIONAL WEATHER SERVICE LOUISVILLE KY
300 PM EST MON JAN 15 2018

NOTE "FAIR" INDICATES FEW OR NO CLOUDS BELOW 12,000 FEET
WITH NO SIGNIFICANT WEATHER AND/OR OBSTRUCTIONS TO VISIBILITY.

KYZ001>023-026-027-061>063-070>075-152100-
WESTERN AND SOUTH CENTRAL KENTUCKY

CITY           SKY/WX    TMP DP  RH WIND       PRES   REMARKS
PADUCAH        LGT SNOW  30  26  85 W9        30.34R VSB 3/4 WCI  22
HENDERSON      LGT SNOW  30  27  88 SW9       30.32R FOG     WCI  22
OWENSBORO      LGT SNOW  31  28  89 W10       30.33R VSB 1   WCI  22
HOPKINSVILLE   FLURRIES  33  25  71 NW14      30.32R WCI  24
BOWLING GREEN  CLOUDY    37  24  59 SW10      30.31R WCI  30
GLASGOW        NOT AVBL
$$

KYZ024-025-028>034-038-045-046-053-152100-
NORTH CENTRAL KENTUCKY

CITY           SKY/WX    TMP DP  RH WIND       PRES   REMARKS
LOUISVILLE/SDF LGT SNOW  31  27  85 SW13      30.28R FOG     WCI  21
LOUISVILLE/LOU LGT SNOW  30  28  92 SW12      30.29R VSB 3/4 WCI  20
FORT KNOX      LGT SNOW  30  26  86 SW16      30.26R FOG     WCI  19
$$

KYZ035>037-039>044-047>052-055>060-089>105-152100-
NORTHEAST KENTUCKY

CITY           SKY/WX    TMP DP  RH WIND       PRES   REMARKS
LEXINGTON      CLOUDY    37  19  48 SW15      30.23R WCI  28
COVINGTON      FOG       28  26  92 SW9       30.22R VSB 3/4 WCI  19
FRANKFORT      CLOUDY    34  19  54 SW16G24   30.24R WCI  24
$$

KYZ054-064>069-076>088-106>120-152100-
SOUTHEAST KENTUCKY

CITY           SKY/WX    TMP DP  RH WIND       PRES   REMARKS
JACKSON        PTSUNNY   39  22  50 MISG      30.25S
LONDON         FAIR      41  20  43 S16       30.27S
SOMERSET       NOT AVBL
MIDDLESBORO    FAIR      39  21  48 S9        30.32S WCI  33
MONTICELLO     FAIR      43  25  49 SW20      30.29S
$$





USA.gov is the U.S. government's official web portal to all federal, state and local government web resources and services.